This demonstration page uses our WeatherBlox Daily Observations layout. Learn more.

Left ArrowRight Arrow

Hourly Observations for April 6, 2015

Temp ( °F °C ) Dew Point ( °F °C ) Humidity (%) Winds ( mph kmh ) Pressure ( in mb ) Visibility ( mi km ) Precip ( " mm )
12:53 am 00:53 Cloudy 52 11.1 47 8.3 83 83 S 18 30 29.72 1007 10 16 0.00 0.00
1:04 am 01:04 Cloudy 52 11 48 9 88 88 S 14 22 29.74 1007 10 16 0.00 0.00
1:53 am 01:53 Cloudy 52 11.1 48 8.9 86 86 S 20 31 29.70 1006 10 16 0.00 0.00
2:53 am 02:53 Cloudy 52 11.1 48 8.9 86 86 S 15 24 29.69 1005 10 16 0.00 0.00
3:53 am 03:53 Cloudy 51 10.6 49 9.4 92 92 S 20 31 29.67 1005 8 13 0.00 0.00
4:08 am 04:08 Cloudy with Mist and Fog 52 11 48 9 88 88 S 17 28 29.71 1006 6 10 0.00 0.00
4:53 am 04:53 Cloudy with Mist and Fog 51 10.6 50 10 96 96 S 13 20 29.67 1005 3 5 0.00 0.00
5:23 am 05:23 Cloudy with Mist and Fog 51 10.6 50 10 96 96 S 15 24 29.71 1006 3 4 0.00 0.00
5:41 am 05:41 Cloudy with Mist and Fog 51 10.6 50 10 96 96 S 14 22 29.71 1006 2 2 0.00 0.00
5:53 am 05:53 Cloudy with Mist and Fog 50 10 50 10 100 100 S 13 20 29.66 1004 1 2 0.00 0.00
6:33 am 06:33 Cloudy with Mist and Fog 52 11 50 10 94 94 SSE 12 19 29.71 1006 3 4 0.00 0.00
6:53 am 06:53 Cloudy with Mist and Fog 52 11.1 50 10 93 93 S 9 15 29.67 1005 3 5 0.00 0.00
7:53 am 07:53 Cloudy with Mist and Fog 51 10.6 50 10 96 96 S 9 15 29.69 1005 3 5 0.00 0.00
8:53 am 08:53 Cloudy with Mist and Fog 52 11.1 51 10.6 97 97 SE 9 15 29.73 1007 3 5 0.00 0.00
9:36 am 09:36 Cloudy with Mist and Fog 52 11.1 51 10.6 97 97 SE 12 19 29.74 1007 3 4 0.00 0.00
9:51 am 09:51 Cloudy with Mist and Fog 54 12 52 11 94 94 SE 12 19 29.71 1006 3 5 0.00 0.00
9:53 am 09:53 Cloudy with Mist and Fog 53 11.7 51 10.6 93 93 SE 13 20 29.72 1007 3 5 0.00 0.00
10:53 am 10:53 Cloudy 54 12.2 52 11.1 93 93 SE 13 20 29.73 1007 10 16 0.00 0.00
11:53 am 11:53 Cloudy 54 12.2 51 10.6 90 90 SE 13 20 29.72 1007 10 16 0.00 0.00
12:53 pm 12:53 Cloudy 56 13.3 52 11.1 87 87 SE 12 19 29.73 1007 10 16 0.00 0.00
1:53 pm 13:53 Cloudy 56 13.3 52 11.1 87 87 SSE 8 13 29.74 1007 10 16 0.00 0.00
2:53 pm 14:53 Cloudy 58 14.4 53 11.7 84 84 SE 3 6 29.74 1007 10 16 0.00 0.00
3:53 pm 15:53 Mostly Cloudy 60 15.6 53 11.7 78 78 Calm 29.72 1007 10 16 0.00 0.00
4:21 pm 16:21 Mostly Cloudy 62 16.7 53 11.7 73 73 VRB 3 6 29.68 1005 9 14 0.00 0.00
4:53 pm 16:53 Mostly Sunny 64 17.8 52 11.1 65 65 NNE 9 15 29.72 1007 10 16 0.00 0.00
5:19 pm 17:19 Mostly Cloudy 61 16.1 52 11.1 72 72 NE 16 26 29.68 1005 10 16 0.00 0.00
5:53 pm 17:53 Cloudy 60 15.6 52 11.1 75 75 NNE 15 24 29.75 1007 10 16 0.00 0.00
6:12 pm 18:12 Cloudy 61 16 52 11 72 72 NNE 12 19 29.71 1006 10 16 0.00 0.00
6:53 pm 18:53 Cloudy 59 15 52 11.1 78 78 NE 12 19 29.76 1008 10 16 0.00 0.00
7:01 pm 19:01 Cloudy 59 15 52 11.1 78 78 NE 10 17 29.74 1007 10 16 0.00 0.00
7:53 pm 19:53 Cloudy 57 13.9 52 11.1 83 83 NE 13 20 29.78 1008 10 16 0.00 0.00
8:14 pm 20:14 Cloudy 55 13 52 11 88 88 NE 13 20 29.77 1008 10 16 0.00 0.00
8:26 pm 20:26 Cloudy 55 12.8 51 10.6 87 87 NE 13 20 29.77 1008 10 16 0.00 0.00
8:53 pm 20:53 Cloudy 54 12.2 51 10.6 90 90 ENE 16 26 29.80 1009 9 14 0.00 0.00
9:51 pm 21:51 Cloudy with Mist and Fog 54 12 52 11 94 94 ENE 14 22 29.83 1010 5 8 0.00 0.00
9:53 pm 21:53 Cloudy with Mist and Fog 53 11.7 51 10.6 93 93 ENE 16 26 29.81 1010 5 8 0.00 0.00
10:53 pm 22:53 Cloudy with Mist and Fog 53 11.7 51 10.6 93 93 NE 16 26 29.80 1009 5 8 0.00 0.00
11:53 pm 23:53 Cloudy with Mist and Fog 52 11.1 51 10.6 97 97 E 13 20 29.81 1010 5 8 0.00 0.00

Powered by AerisWeather